Home > Weather > Algiers > Past weeks

Flag for Algeria Weather for the Past 2 Weeks in Algiers, Algeria

Now
72 °F

Sunny.


Feels Like: 77 °F
Forecast: 58 / 69 °F
Wind: 22 mph from Northeast

Location: Dar-El-Beida

Current Time: May 4, 2016 at 3:24:04 PM

Latest Report: May 4, 2016 at 2:30 PM


Visibility: 10 mi

Pressure: 30.04 "Hg

Humidity: 50%

Dew Point: 52 °F

Location of AlgiersLocation

Historic Weather in Algiers — Graph

°F

Algiers Temperature Yesterday

Maximum temperature yesterday: 75 °F (at 11:30 AM)
Minimum temperature yesterday: 39 °F (at 4:30 AM)
Average temperature yesterday: 59 °F

High & Low Weather Summary for the Past Weeks

 TemperatureHumidityPressure
High77 °F (Apr 27, 1:30 PM)100% (Apr 21, 11:30 PM)30.27 "Hg (Apr 21, 11:30 PM)
Low39 °F (May 2, 4:30 AM)31% (May 3, 11:30 AM)29.80 "Hg (Apr 20, 2:30 AM)
Average61 °F76%30.04 "Hg
* Reported Apr 19 2:30 PM — May 4 2:00 PM, Algiers, Weather by CustomWeather, © 2016

Note: Actual official high and low records may vary slightly from our data, if they occured in-between our weather recording intervals... More about our weather records

Advertising

Algiers Weather History for the Previous 24 Hours

Scroll right to see more
 ConditionsComfort  
Time TempWeatherWind HumidityBarometerVisibility
2:00 PM
Wed, May 4
73 °FSunny.23 mph47%30.04 "Hg10 mi
1:30 PM73 °FSunny.21 mph44%30.07 "Hg10 mi
12:00 PM73 °FSunny.20 mph47%30.07 "Hg10 mi
11:30 AM73 °FSunny.17 mph47%30.07 "Hg10 mi
11:00 AM73 °FSunny.16 mph47%30.09 "Hg10 mi
10:30 AM73 °FSunny.16 mph47%30.07 "Hg10 mi
10:00 AM72 °FPartly sunny.12 mph47%30.09 "HgN/A
9:00 AM68 °FPassing clouds.8 mph53%30.09 "HgN/A
8:30 AM63 °FSunny.2 mph68%30.09 "Hg10 mi
8:00 AM57 °FSunny.No wind82%30.09 "Hg10 mi
7:30 AM52 °FSunny.1 mph100%30.09 "Hg10 mi
7:00 AM48 °FSunny.2 mph100%30.09 "Hg10 mi
6:30 AM45 °FSunny.No wind100%30.09 "Hg10 mi
6:00 AM43 °FSunny.No wind100%30.09 "Hg10 mi
5:30 AM45 °FPassing clouds.3 mph93%30.09 "HgN/A
5:00 AM45 °FClear.2 mph100%30.07 "Hg10 mi
4:30 AM45 °FClear.No wind100%30.09 "Hg10 mi
4:00 AM45 °FClear.No wind100%30.09 "Hg10 mi
3:30 AM46 °FClear.3 mph100%30.09 "Hg10 mi
3:00 AM45 °FClear.No wind100%30.09 "Hg10 mi
2:30 AM46 °FClear.No wind93%30.09 "Hg10 mi
2:00 AM46 °FPassing clouds.2 mph93%30.09 "HgN/A
1:30 AM48 °FPassing clouds.No wind94%30.09 "HgN/A
1:00 AM48 °FPassing clouds.No wind94%30.12 "HgN/A
12:30 AM48 °FPassing clouds.2 mph94%30.12 "HgN/A
12:00 AM50 °FPassing clouds.1 mph94%30.12 "HgN/A
11:30 PM
Tue, May 3
50 °FPassing clouds.1 mph94%30.12 "HgN/A
11:00 PM50 °FPassing clouds.2 mph94%30.12 "HgN/A
10:30 PM52 °FPassing clouds.2 mph88%30.12 "HgN/A
10:00 PM55 °FPassing clouds.No wind82%30.15 "HgN/A
9:30 PM57 °FPassing clouds.3 mph77%30.15 "HgN/A
9:00 PM59 °FClear.6 mph77%30.12 "Hg10 mi
8:30 PM61 °FClear.7 mph72%30.12 "Hg10 mi
8:00 PM63 °FClear.6 mph64%30.12 "Hg10 mi
7:30 PM64 °FSunny.10 mph60%30.12 "Hg10 mi
7:00 PM66 °FSunny.15 mph52%30.12 "Hg10 mi
6:30 PM68 °FSunny.16 mph49%30.12 "Hg10 mi
6:00 PM68 °FSunny.18 mph49%30.12 "Hg10 mi
5:30 PM70 °FSunny.20 mph43%30.12 "Hg10 mi
5:00 PM70 °FSunny.21 mph43%30.15 "Hg10 mi
4:30 PM70 °FSunny.22 mph43%30.15 "Hg10 mi
4:00 PM72 °FSunny.21 mph38%30.15 "Hg10 mi
3:30 PM72 °FSunny.22 mph41%30.15 "Hg10 mi
3:00 PM73 °FSunny.24 mph41%30.18 "Hg10 mi
Weather by CustomWeather, © 2016

See weather overviewHow to use our weather pages